Find Local Weather

World > North America > United States > North Carolina

Raleigh, North Carolina Regional Weather

Lat: 35.82N, Lon: 78.66W
Wx Zone: NCZ041
Warning FLW WEATHER ALERT - HARD FROST ADVISORY (More Info. Click Here) Warning
Feedback
Expires:201810220200;;543423
ASUS42 KRAH 220110
RWRRAH
NORTH CAROLINA WEATHER ROUNDUP
NATIONAL WEATHER SERVICE RALEIGH NC
900 PM EDT SUN OCT 21 2018

NOTE: "FAIR" INDICATES FEW OR NO CLOUDS BELOW 12,000 FEET WITH NO
SIGNIFICANT WEATHER AND/OR OBSTRUCTIONS TO VISIBILITY.


NCZ021-022-025-041-071-084-088-220200-
CENTRAL NORTH CAROLINA
  
CITY           SKY/WX    TMP DP  RH WIND       PRES   REMARKS
CHARLOTTE      FAIR      48  36  63 CALM      30.23S                  
GREENSBORO     FAIR      44  37  76 N3        30.23S                  
WINSTON-SALEM  FAIR      45  34  65 CALM      30.24S                  
RALEIGH-DURHAM FAIR      41  37  86 CALM      30.25R                  
FORT BRAGG     FAIR      46  37  69 CALM      30.23R                  
FAYETTEVILLE   FAIR      48  35  60 CALM      30.24R                  
BURLINGTON     FAIR      42  36  79 S3        30.23S                  
LAURINBURG     FAIR      44  39  82 CALM      30.25R                  
$$
 

SKY/WX - Weather  TMP - Temperature  DP - Dew Point  RH - Relative Humidity
WIND - Wind Direction/Speed PRES - Barometric Pressure